Regional Weather Roundup
Issued by NWS Upton, NY

Current Version | Previous Version | Text Only | Print | Product List | Glossary Off
Versions: 1 2 3 4 5 6 7 8 9 10 11 12 13 14 15 16 17 18 19 20 21 22 23 24 25 26 27 28 29 30 31 32 33 34 35 36 37 38 39 40 41 42 43 44 45 46 47 48 49 50
000 ASUS41 KOKX 261808 RWROKX REGIONAL WEATHER ROUNDUP NATIONAL WEATHER SERVICE NEW YORK NY 200 PM EDT SUN MAR 26 2017 NOTE: "FAIR" INDICATES FEW OR NO CLOUDS BELOW 12,000 FEET WITH NO SIGNIFICANT WEATHER AND/OR OBSTRUCTIONS TO VISIBILITY. NYZ071-072-176-178-NJZ106-104-261900- NEW YORK CITY METRO AREA CITY SKY/WX TMP DP RH WIND PRES REMARKS Central Park CLOUDY 39 32 76 NE9 30.47F WCI 33 Wall St Helipt CLOUDY 41 34 76 N12 30.45F LaGuardia APRT CLOUDY 41 33 73 NE14 30.45F Kennedy INTL CLOUDY 42 35 76 E16 30.46F Breezy Point N/A 39 N/A N/A E15G23 N/A WCI 31 Newark/Liberty CLOUDY 42 35 76 NE8 30.44F Teterboro CLOUDY 40 32 73 E9G21 30.44F WCI 34 $$ NYZ177-179-078>081-261900- LONG ISLAND NEW YORK CITY SKY/WX TMP DP RH WIND PRES REMARKS Jones Beach N/A 39 N/A N/A E16 N/A WCI 30 Matinecock PT NOT AVBL Farmingdale CLOUDY 42 32 67 E16 30.45F MacArthur/ISP CLOUDY 42 32 67 E17G25 30.45F Shirley CLOUDY 41 33 73 E10G17 30.46F Westhampton CLOUDY 42 33 70 E10G22 30.48F East Hampton CLOUDY 41 32 70 E12G21 30.48F Montauk N/A 42 36 79 E9 30.50S $$ NYZ052-065-067-261900- HUDSON VALLEY CITY SKY/WX TMP DP RH WIND PRES REMARKS White Plains PTSUNNY 39 29 67 E13 30.43F WCI 31 Newburgh CLOUDY 39 30 70 E9 30.45F WCI 33 Montgomery LGT RAIN 38 31 76 N7 30.43F WCI 33 Poughkeepsie CLOUDY 37 29 72 E8 30.45F WCI 31 Albany DRIZZLE 37 28 70 S12 30.46S WCI 29 $$ NJZ001-105-106-008-010-013-015-019>022-104-261900- NEW JERSEY CITY SKY/WX TMP DP RH WIND PRES REMARKS Newark/Liberty CLOUDY 42 35 76 NE8 30.44F Teterboro CLOUDY 40 32 73 E9G21 30.44F WCI 34 Caldwell CLOUDY 39 33 79 E9 30.45F WCI 33 Somerville CLOUDY 43 35 73 E7G17 30.41F Linden CLOUDY 43 34 71 E13 30.44F Sussex CLOUDY 39 33 79 E3 30.42F Andover N/A 38 32 79 VRB3 30.42F Trenton CLOUDY 42 37 82 E13 30.40F Millville CLOUDY 46 42 86 E14 30.36F Atlantic City CLOUDY 44 39 82 E17 30.38F HAZE Wrightstown CLOUDY 43 37 81 E10 30.37F Toms River CLOUDY 42 38 85 NE14 30.41F FOG Belmar NOT AVBL $$ PAZ047>061-062-071-261900- EASTERN PENNSYLVANIA CITY SKY/WX TMP DP RH WIND PRES REMARKS Philadelphia CLOUDY 44 38 79 E15 30.39F Allentown CLOUDY 43 33 68 E12 30.39F Scranton CLOUDY 40 34 79 SE6 30.34F $$ CTZ002-004>006-009-010-012-RIZ004-006-007-MAZ004-011-015-261900- SOUTHERN NEW ENGLAND IN CT CITY SKY/WX TMP DP RH WIND PRES REMARKS Bradley INTL CLOUDY 38 29 70 N6 30.49F WCI 33 Hartford CLOUDY 38 31 76 N5 30.50F WCI 34 Danbury CLOUDY 39 29 67 E9 30.46F WCI 33 Wtrbury/Oxford CLOUDY 36 28 75 SE5 30.47F WCI 32 Bridgeport CLOUDY 41 29 62 E14 30.47F Meriden CLOUDY 39 30 70 NE3 30.49F New Haven CLOUDY 41 29 62 E12 30.48F Chester NOT AVBL Groton CLOUDY 41 33 73 E12 30.50R Wilimantic CLOUDY 43 28 55 E3 30.49F IN RI CITY SKY/WX TMP DP RH WIND PRES REMARKS Providence LGT RAIN 43 28 55 SE7 30.50F Block Island CLOUDY 40 35 83 E16 30.50S WCI 31 Westerly CLOUDY 41 33 73 E10 30.51S IN MA CITY SKY/WX TMP DP RH WIND PRES REMARKS Boston LGT RAIN 38 26 62 E14 30.54F WCI 30 Worcester LGT RAIN 36 25 64 E6 30.46F WCI 31 Westfield LGT RAIN 37 30 75 NE5 30.49F WCI 33 Provincetown PTSUNNY 41 26 55 E14G21 30.54F Nantucket CLOUDY 40 26 57 E14 30.50S WCI 32 $$ ANZ330-335-338-340-345-350-353-355-261900- COASTAL MARINE OBSERVATIONS STATION/POSITION TIME SKY/WX TEMP WIND PRES VSBY WAVE AIR SEA DIR/SP/G HT/PER (UTC) (F) (DEG/KT/KT) (MB) (MI) (FT/S) NY HARB ENTRANCE 1650 40 42 60/ 17/ 19 1031.2 4/ 6 20 S FIRE ISLAND 1750 41 40 70/ 17/ 19 1030.0 5/ 6 GREAT SOUTH BAY NOT AVBL 23 SSW MONTAUK P 1650 41 43 1032.1 5/ 5 15 E BARNEGAT LI 1730 43 N/A 6/ 7 HUDSON CANYON 1650 45 45 70/ 14/ 16 1029.2 6/ 6 KINGS POINT 1748 39 39 1031.2 EXECUTION ROCKS NOT AVBL CENTRAL LI SOUND 1715 39 80/ 12/ 14 N/A 2/ 4 EASTERN LI SOUND NOT AVBL ROBBINS REEF 1748 40 80/ 11/ 15 1031.1 $$ >>>>>>>>>>>>>>>>>>>>>>>>>>>> KEY <<<<<<<<<<<<<<<<<<<<<<<<<<< > < > SKY/WX - Sky Condition/Present Weather < > TMP - Temperature in Fahrenheit < > DP - Dew Point in Fahrenheit < > RH - Relative Humidity in Percent < > WIND - Direction (from) and Speed in MPH < > PRES - Mean Sea Level Pressure (inches of Hg) < > WCI - Wind Chill Index < > VSB - VISIBILITY IN MILES < > HX - HEAT INDEX < > TC - TEMPERATURE IN CELSIUS < > VRB - VARIABLE WIND DIRECTION < > < >>>>>>>>>>>>>>>>>>>>>>>>>>>> KEY <<<<<<<<<<<<<<<<<<<<<<<<<<<

USA.gov is the U.S. government's official web portal to all federal, state and local government web resources and services.